Location: Dillon
(41.1766°N, 107.0923°W)
Time: 23:05:23
(UTC+00:00)

DIWATA 2B (PO-101) - Pass Details

Date: 03 July 2022
Orbit: 583 x 599 km, 98.0° (Epoch: 18 August)

Event Time Altitude Azimuth Distance (km) Brightness Sun altitude
Exits shadow 08:21:52 22° 109° (ESE) 1,313 ? -23.9°
Maximum altitude 08:23:33 30° 69° (ENE) 1,090 ? -23.8°
Drops below altitude 10° 08:27:14 10° 9° (N) 1,948 ? -23.6°
Sets 08:29:36 0° 358° (N) 2,855 ? -23.4°
